Location: Saint Louis
(38.6272°N, 90.1978°W)
Time: 01:51:10
(UTC-05:00)

ISS - Pass Details

Date: 30 January 2013
Orbit: 401 x 404 km, 51.6° (Epoch: 24 July)

Event Time Altitude Azimuth Distance (km) Brightness Sun altitude
Exits shadow 04:58:02 22° 51° (NE) 944 -1.0 -25.5°
Drops below altitude 10° 05:00:01 10° 86° (E) 1,474 0.5 -25.1°
Sets 05:02:22 0° 100° (E) 2,339 1.9 -24.7°
